Ogden, UT

8:22 AM MDT on June 26, 2017 (GMT -0600)
Ogden-Hinckley

Weather History for KOGD - August, 2014

Change the Weather History Date:

Wednesday, August 20, 2014

  Actual Average Record
Temperature  
Mean Temperature 72 °F -  
Max Temperature 82 °F 88 °F 99 °F (1931)
Min Temperature 63 °F 56 °F 40 °F (1964)
Cooling Degree Days 8    
Growing Degree Days 22 (Base 50)    
Moisture  
Dew Point 52 °F    
Average Humidity 55    
Maximum Humidity 78    
Minimum Humidity 29    
Precipitation  
Precipitation 0.07 in - - ()
Sea Level Pressure  
Sea Level Pressure 29.83 in    
Wind  
Wind Speed 10 mph (SSE)    
Max Wind Speed 25 mph    
Max Gust Speed 34 mph    
Visibility 10 miles    
Events Rain , Thunderstorm    
Averages and records for this station are not official NWS values.
T = Trace of Precipitation, MM = Missing Value Source: NWS Daily Summary

Daily Weather History Graph

Daily Weather History Graph

Search for Another Location

Airport or City:

Trip Planner

Search our weather history database for the weather conditions in past years. The results will help you decide how hot, cold, wet, or windy it might be!

Date:

Astronomy

Aug. 20, 2014 Rise Set
Actual Time 6:42 AM MDT 8:19 PM MDT
Civil Twilight 6:13 AM MDT 8:48 PM MDT
Nautical Twilight 5:38 AM MDT 9:23 PM MDT
Astronomical Twilight 5:00 AM MDT 10:01 PM MDT
Moon 2:24 AM MDT (8/20) 5:08 PM MDT (8/20)
Length of Visible Light 14h 35m
Length of Day
13h 36m
Waning Crescent, 20% of the Moon is Illuminated
Aug 20
Waning Crescent
Aug 25
New
Sep 2
First Quarter
Sep 8
Full
Sep 15
Last Quarter

Hourly Weather History & Observations

Time (MDT) Temp. Dew Point Humidity Pressure Visibility Wind Dir Wind Speed Gust Speed Precip Events Conditions
12:53 AM 64.0 °F 53.1 °F 67% 29.76 in 10.0 mi SSE 6.9 mph - N/A   Mostly Cloudy
1:53 AM 64.9 °F 53.1 °F 65% 29.76 in 10.0 mi SSE 5.8 mph - N/A   Clear
2:53 AM 66.0 °F 53.1 °F 63% 29.75 in 10.0 mi South 10.4 mph - N/A   Mostly Cloudy
3:53 AM 66.9 °F 54.0 °F 63% 29.76 in 10.0 mi SSE 12.7 mph - N/A   Scattered Clouds
4:53 AM 66.0 °F 55.0 °F 68% 29.78 in 10.0 mi South 5.8 mph - N/A   Overcast
5:53 AM 64.0 °F 55.0 °F 73% 29.80 in 10.0 mi South 10.4 mph - N/A   Overcast
6:53 AM 63.0 °F 55.0 °F 75% 29.81 in 10.0 mi South 11.5 mph - N/A   Clear
7:53 AM 63.0 °F 55.0 °F 75% 29.83 in 10.0 mi South 11.5 mph - N/A   Clear
8:53 AM 66.0 °F 54.0 °F 65% 29.86 in 10.0 mi SSE 15.0 mph 21.9 mph N/A   Clear
9:53 AM 69.1 °F 52.0 °F 54% 29.86 in 10.0 mi South 16.1 mph 23.0 mph N/A   Clear
10:53 AM 71.1 °F 52.0 °F 51% 29.86 in 10.0 mi South 18.4 mph - N/A   Clear
11:53 AM 73.9 °F 52.0 °F 46% 29.87 in 10.0 mi SSW 13.8 mph - N/A   Clear
12:53 PM 77.0 °F 50.0 °F 39% 29.85 in 10.0 mi South 12.7 mph - N/A   Clear
1:53 PM 78.1 °F 50.0 °F 37% 29.83 in 10.0 mi SSE 8.1 mph 17.3 mph N/A   Clear
2:53 PM 80.1 °F 50.0 °F 35% 29.81 in 10.0 mi SSW 9.2 mph - N/A   Clear
3:53 PM 81.0 °F 48.9 °F 33% 29.77 in 10.0 mi South 9.2 mph - N/A   Clear
4:53 PM 82.0 °F 48.0 °F 30% 29.74 in 10.0 mi SSE 8.1 mph 17.3 mph N/A   Clear
5:53 PM 82.0 °F 48.0 °F 30% 29.75 in 10.0 mi South 13.8 mph - N/A   Clear
6:53 PM 80.1 °F 45.0 °F 29% 29.74 in 10.0 mi SSE 13.8 mph - N/A   Clear
7:53 PM 78.1 °F 46.0 °F 32% 29.78 in 10.0 mi SW 8.1 mph 18.4 mph N/A Thunderstorm Scattered Clouds
8:32 PM 66.9 °F 48.9 °F 52% 29.97 in 10.0 mi North 25.3 mph 34.5 mph 0.00 in Rain Light Rain
8:40 PM 64.9 °F 50.0 °F 58% 29.97 in 10.0 mi NNE 20.7 mph 32.2 mph 0.00 in Rain , Thunderstorm Light Rain
8:53 PM 64.0 °F 53.1 °F 67% 29.84 in 10.0 mi North 11.5 mph - 0.01 in Rain Light Rain
9:53 PM 64.9 °F 53.1 °F 65% 29.88 in 10.0 mi NNW 9.2 mph - 0.02 in   Mostly Cloudy
10:19 PM 64.0 °F 54.0 °F 70% 30.06 in 8.0 mi Calm Calm - 0.01 in Rain , Thunderstorm Light Thunderstorms and Rain
10:53 PM 63.0 °F 55.0 °F 75% 29.94 in 10.0 mi SE 9.2 mph - 0.02 in Rain Light Rain
11:53 PM 63.0 °F 55.9 °F 78% 29.87 in 10.0 mi East 11.5 mph - 0.02 in   Overcast